Total_Precipitation_Accumulation
0.61 0.61 0.54 0.53 0.47 0.49 0.64 0.71 0.57 0.57 0.57 0.49 0.53 0.54 0.51 0.61 0.89 1.47 2.55 1.27 1.85 2.00 0.55 0.23 0.23 0.20 0.07 0.07 0.12 0.06 0.26 0.21 0.33 0.34 0.10 0.04 0.02 0.01 0.01 0.06 0.16 0.19 0.19 0.22 0.28 0.29 0.10 0.01 0.03 0.04 0.02 0.00 0.00 0.00
0.83 0.66 0.60 0.57 0.46 0.53 0.64 0.65 0.53 0.55 0.51 0.44 0.43 0.47 0.45 0.53 0.91 1.29 2.17 1.35 1.26 1.96 1.19 0.33 0.23 0.18 0.10 0.01 0.05 0.06 0.08 0.05 0.09 0.25 0.11 0.09 0.03 0.02 0.00 0.00 0.02 0.09 0.14 0.17 0.16 0.16 0.07 0.04 0.06 0.10 0.08 0.04 0.01 0.01
1.13 0.75 0.63 0.54 0.49 0.60 0.63 0.54 0.44 0.46 0.48 0.45 0.40 0.40 0.50 0.62 0.85 1.31 1.55 1.30 1.97 2.75 1.37 0.67 0.32 0.14 0.17 0.06 0.05 0.16 0.06 0.02 0.04 0.08 0.11 0.14 0.09 0.03 0.01 0.00 0.00 0.00 0.01 0.02 0.03 0.01 0.00 0.03 0.04 0.02 0.01 0.01 0.02 0.02
1.02 0.79 0.52 0.47 0.49 0.57 0.52 0.41 0.39 0.46 0.48 0.50 0.41 0.46 0.54 0.89 0.86 1.21 1.18 1.58 2.14 1.98 1.51 0.71 0.48 0.27 0.18 0.21 0.13 0.11 0.09 0.07 0.11 0.21 0.23 0.22 0.16 0.05 0.02 0.03 0.01 0.00 0.03 0.03 0.01 0.00 0.00 0.02 0.02 0.02 0.01 0.00 0.00 0.01
0.75 0.60 0.48 0.44 0.44 0.50 0.49 0.49 0.47 0.46 0.55 0.53 0.49 0.57 0.80 0.94 1.12 1.35 0.99 1.52 1.88 1.90 1.49 0.80 0.41 0.32 0.22 0.18 0.15 0.11 0.13 0.21 0.26 0.42 0.42 0.19 0.08 0.07 0.05 0.06 0.02 0.02 0.04 0.05 0.01 0.03 0.03 0.00 0.01 0.03 0.01 0.00 0.00 0.00
0.62 0.55 0.47 0.45 0.41 0.43 0.38 0.46 0.54 0.59 0.50 0.56 0.65 0.80 0.78 0.88 1.72 2.19 2.53 1.99 1.46 1.53 1.66 1.20 0.44 0.22 0.28 0.28 0.32 0.16 0.19 0.29 0.36 0.35 0.31 0.28 0.15 0.21 0.12 0.03 0.01 0.03 0.07 0.09 0.04 0.03 0.04 0.03 0.02 0.02 0.01 0.01 0.02 0.01
0.65 0.58 0.46 0.38 0.31 0.29 0.33 0.40 0.42 0.47 0.67 0.72 0.74 0.71 0.80 1.46 1.80 1.46 1.42 1.23 0.86 1.14 1.51 1.23 0.83 0.38 0.36 0.49 0.86 0.62 0.47 0.53 0.64 0.53 0.32 0.18 0.19 0.33 0.21 0.07 0.02 0.01 0.02 0.03 0.01 0.02 0.05 0.06 0.05 0.03 0.04 0.05 0.04 0.03
0.56 0.43 0.37 0.33 0.31 0.29 0.33 0.41 0.46 0.55 0.66 0.61 0.70 0.87 1.20 1.43 1.26 1.22 0.72 0.68 0.63 0.83 1.04 1.19 1.12 0.93 0.56 0.62 0.87 0.89 0.67 0.79 0.93 0.78 0.44 0.18 0.26 0.47 0.56 0.19 0.04 0.02 0.01 0.01 0.00 0.00 0.00 0.02 0.04 0.04 0.05 0.07 0.12 0.15
0.39 0.33 0.31 0.30 0.35 0.40 0.45 0.44 0.48 0.60 0.65 0.93 1.33 1.71 2.09 2.16 2.15 1.22 0.78 0.86 0.84 0.85 0.86 0.61 0.99 1.05 0.90 0.62 0.80 0.86 0.88 0.91 0.57 0.54 0.57 0.52 0.34 0.52 0.44 0.17 0.11 0.05 0.01 0.00 0.00 0.00 0.00 0.00 0.01 0.02 0.03 0.04 0.07 0.16
0.33 0.34 0.37 0.37 0.37 0.36 0.38 0.44 0.58 0.71 0.93 1.24 1.43 1.88 2.64 1.91 1.39 1.25 1.88 1.84 1.25 0.75 0.52 0.40 0.53 1.02 1.05 0.81 0.80 0.92 0.92 0.73 0.51 0.41 0.42 0.63 0.63 0.27 0.07 0.10 0.09 0.09 0.11 0.06 0.03 0.01 0.01 0.03 0.06 0.09 0.14 0.14 0.15 0.16
0.38 0.37 0.39 0.38 0.42 0.51 0.52 0.54 0.54 0.59 0.75 0.93 1.33 1.89 1.87 1.46 1.47 1.58 1.63 1.32 0.88 0.50 0.25 0.18 0.32 0.86 1.05 0.83 0.90 0.68 1.13 1.01 0.52 0.40 0.43 0.49 0.45 0.25 0.10 0.05 0.05 0.07 0.05 0.05 0.04 0.06 0.07 0.11 0.17 0.21 0.21 0.18 0.15 0.13
0.31 0.29 0.27 0.27 0.32 0.42 0.41 0.36 0.35 0.44 0.62 0.81 1.15 1.33 1.60 1.59 1.23 1.00 0.90 0.81 0.43 0.32 0.31 0.22 0.21 0.40 0.97 0.94 1.01 0.68 0.81 0.99 1.10 0.55 0.60 0.56 0.34 0.16 0.09 0.09 0.09 0.11 0.10 0.10 0.11 0.16 0.22 0.25 0.26 0.21 0.16 0.14 0.16 0.18
0.29 0.30 0.30 0.28 0.21 0.20 0.26 0.38 0.55 0.63 0.95 1.04 0.88 1.03 1.10 0.98 0.97 0.89 0.78 0.61 0.48 0.24 0.25 0.31 0.31 0.47 0.66 0.99 1.10 0.89 0.97 0.82 0.99 1.17 0.62 0.48 0.26 0.20 0.31 0.36 0.36 0.31 0.30 0.31 0.34 0.32 0.26 0.24 0.23 0.24 0.30 0.41 0.43 0.50
0.14 0.16 0.19 0.24 0.35 0.50 0.52 0.54 0.91 1.16 0.99 0.74 0.62 0.78 0.80 0.83 0.66 0.64 0.65 0.65 0.45 0.33 0.30 0.30 0.46 0.66 0.53 0.84 1.22 1.22 1.31 0.97 0.94 0.72 0.47 0.46 0.52 0.67 0.60 0.47 0.41 0.48 0.49 0.50 0.57 0.57 0.57 0.59 0.71 0.80 0.85 0.91 0.76 0.82
0.12 0.13 0.25 0.53 0.59 0.44 0.39 0.58 0.83 0.72 0.49 0.50 0.38 0.49 0.61 0.74 0.58 0.64 0.63 0.47 0.47 0.53 0.61 0.71 0.94 0.76 0.65 0.93 0.94 0.89 0.82 0.66 0.56 0.59 0.69 0.85 0.84 0.80 0.65 0.59 0.59 0.63 0.65 0.66 0.71 0.69 0.77 0.78 0.64 0.74 0.81 0.73 0.58 0.59
0.09 0.16 0.31 0.36 0.26 0.29 0.37 0.59 0.67 0.30 0.32 0.36 0.50 0.65 0.59 0.63 0.66 0.67 0.60 0.52 0.58 0.75 0.80 0.79 0.84 0.78 0.89 0.70 0.49 0.52 0.49 0.60 0.79 0.70 0.84 0.90 0.82 0.85 0.82 0.78 0.78 0.82 0.77 0.77 0.80 0.73 0.66 0.58 0.50 0.52 0.50 0.47 0.47 0.37
0.12 0.16 0.22 0.18 0.21 0.26 0.32 0.38 0.33 0.32 0.37 0.42 0.81 0.95 0.83 0.72 0.81 0.84 0.78 0.68 0.61 0.52 0.51 0.47 0.51 0.56 0.51 0.43 0.50 0.52 0.71 0.78 0.81 0.83 0.87 0.90 0.92 0.97 0.98 0.88 0.81 0.68 0.62 0.65 0.64 0.61 0.59 0.59 0.41 0.26 0.29 0.39 0.27 0.23
0.22 0.18 0.13 0.13 0.16 0.14 0.13 0.10 0.11 0.13 0.33 0.63 0.71 0.94 0.67 0.76 0.74 0.67 0.69 0.60 0.45 0.41 0.41 0.49 0.41 0.44 0.56 0.57 0.68 0.78 0.88 0.93 0.98 0.95 0.92 0.95 0.92 0.85 0.77 0.65 0.63 0.53 0.49 0.51 0.45 0.42 0.39 0.32 0.23 0.27 0.22 0.20 0.12 0.11
0.50 0.25 0.25 0.34 0.27 0.25 0.11 0.09 0.01 0.17 0.53 0.58 0.59 0.47 0.38 0.49 0.51 0.49 0.38 0.27 0.18 0.15 0.17 0.23 0.33 0.55 0.74 0.81 0.86 0.88 0.88 0.80 0.80 0.78 0.71 0.74 0.75 0.71 0.65 0.54 0.50 0.49 0.41 0.38 0.28 0.24 0.22 0.17 0.17 0.15 0.13 0.08 0.10 0.14
0.53 0.41 0.38 0.35 0.20 0.21 0.06 0.05 0.00 0.09 0.28 0.34 0.28 0.12 0.13 0.21 0.16 0.10 0.09 0.06 0.07 0.06 0.11 0.26 0.57 0.69 0.64 0.70 0.66 0.67 0.67 0.62 0.48 0.35 0.42 0.50 0.56 0.44 0.47 0.42 0.40 0.34 0.24 0.21 0.17 0.16 0.13 0.13 0.15 0.15 0.14 0.13 0.12 0.13
0.32 0.25 0.18 0.12 0.09 0.06 0.05 0.04 0.05 0.05 0.10 0.13 0.08 0.02 0.04 0.02 0.02 0.02 0.01 0.00 0.02 0.09 0.36 0.56 0.55 0.60 0.45 0.43 0.38 0.34 0.39 0.36 0.37 0.29 0.33 0.40 0.45 0.30 0.31 0.34 0.30 0.25 0.22 0.24 0.21 0.23 0.18 0.19 0.18 0.14 0.13 0.10 0.09 0.09
0.09 0.04 0.01 0.02 0.06 0.06 0.03 0.00 0.03 0.03 0.02 0.04 0.05 0.03 0.02 0.03 0.02 0.02 0.02 0.05 0.26 0.47 0.51 0.40 0.34 0.28 0.20 0.23 0.22 0.17 0.22 0.19 0.24 0.34 0.43 0.36 0.36 0.34 0.37 0.41 0.30 0.28 0.27 0.27 0.24 0.20 0.17 0.14 0.10 0.07 0.05 0.05 0.04 0.03
0.00 0.01 0.02 0.02 0.06 0.05 0.06 0.02 0.04 0.02 0.01 0.02 0.03 0.02 0.02 0.02 0.03 0.02 0.05 0.16 0.44 0.53 0.40 0.21 0.17 0.15 0.17 0.28 0.19 0.16 0.14 0.10 0.12 0.18 0.23 0.26 0.28 0.30 0.29 0.29 0.27 0.24 0.20 0.18 0.14 0.11 0.08 0.05 0.01 0.01 0.01 0.03 0.03 0.02
0.01 0.02 0.10 0.12 0.06 0.07 0.05 0.05 0.04 0.04 0.02 0.01 0.02 0.05 0.05 0.03 0.01 0.03 0.08 0.20 0.40 0.29 0.19 0.23 0.18 0.14 0.14 0.15 0.17 0.21 0.26 0.20 0.21 0.23 0.24 0.18 0.17 0.19 0.14 0.12 0.08 0.07 0.06 0.04 0.02 0.01 0.01 0.01 0.02 0.04 0.03 0.02 0.01 0.02
0.07 0.04 0.12 0.14 0.11 0.08 0.04 0.03 0.05 0.04 0.03 0.02 0.03 0.06 0.04 0.02 0.04 0.05 0.08 0.26 0.25 0.23 0.24 0.24 0.18 0.17 0.17 0.20 0.22 0.21 0.17 0.12 0.10 0.10 0.12 0.08 0.08 0.05 0.02 0.00 0.01 0.01 0.00 0.01 0.02 0.02 0.02 0.02 0.02 0.01 0.01 0.03 0.05 0.06
0.22 0.13 0.08 0.08 0.06 0.07 0.04 0.03 0.03 0.03 0.03 0.08 0.11 0.07 0.05 0.07 0.07 0.14 0.21 0.31 0.25 0.26 0.29 0.30 0.26 0.19 0.17 0.15 0.14 0.12 0.08 0.06 0.03 0.02 0.02 0.01 0.01 0.01 0.01 0.01 0.01 0.02 0.01 0.03 0.05 0.04 0.02 0.01 0.01 0.02 0.04 0.04 0.05 0.08
0.16 0.12 0.06 0.07 0.09 0.13 0.20 0.17 0.16 0.16 0.15 0.16 0.13 0.09 0.15 0.19 0.16 0.27 0.34 0.35 0.31 0.33 0.26 0.20 0.13 0.10 0.12 0.11 0.08 0.07 0.03 0.01 0.01 0.01 0.01 0.02 0.02 0.01 0.01 0.03 0.04 0.04 0.02 0.02 0.03 0.04 0.05 0.06 0.04 0.04 0.05 0.05 0.07 0.10
0.10 0.08 0.09 0.11 0.18 0.22 0.21 0.19 0.23 0.27 0.28 0.22 0.17 0.15 0.17 0.15 0.23 0.34 0.36 0.38 0.24 0.17 0.10 0.07 0.05 0.03 0.04 0.05 0.06 0.05 0.03 0.01 0.01 0.01 0.02 0.05 0.02 0.00 0.01 0.02 0.02 0.02 0.01 0.02 0.02 0.03 0.05 0.08 0.08 0.08 0.07 0.09 0.09 0.11
0.09 0.11 0.11 0.11 0.07 0.07 0.13 0.16 0.18 0.19 0.18 0.14 0.10 0.12 0.14 0.19 0.31 0.31 0.33 0.27 0.19 0.12 0.09 0.07 0.10 0.06 0.04 0.02 0.01 0.01 0.00 0.00 0.00 0.00 0.00 0.02 0.03 0.03 0.01 0.01 0.02 0.01 0.02 0.02 0.01 0.01 0.05 0.10 0.11 0.13 0.10 0.11 0.11 0.12
0.02 0.02 0.02 0.01 0.04 0.09 0.15 0.11 0.13 0.12 0.06 0.05 0.05 0.07 0.10 0.26 0.41 0.30 0.21 0.16 0.12 0.12 0.11 0.09 0.08 0.04 0.04 0.03 0.02 0.02 0.04 0.01 0.00 0.01 0.02 0.02 0.03 0.03 0.03 0.03 0.02 0.02 0.03 0.02 0.02 0.01 0.02 0.02 0.04 0.09 0.05 0.07 0.10 0.10
0.01 0.01 0.01 0.02 0.08 0.11 0.10 0.05 0.07 0.07 0.07 0.05 0.04 0.05 0.11 0.20 0.22 0.18 0.14 0.15 0.09 0.07 0.05 0.03 0.02 0.01 0.01 0.01 0.02 0.01 0.02 0.02 0.02 0.01 0.01 0.02 0.03 0.03 0.03 0.02 0.03 0.04 0.03 0.03 0.02 0.03 0.04 0.02 0.05 0.06 0.04 0.04 0.06 0.07
0.01 0.02 0.01 0.06 0.15 0.10 0.10 0.13 0.10 0.12 0.09 0.07 0.08 0.06 0.09 0.08 0.08 0.10 0.10 0.08 0.05 0.04 0.03 0.03 0.03 0.04 0.02 0.02 0.01 0.01 0.02 0.01 0.01 0.01 0.02 0.03 0.02 0.02 0.02 0.02 0.02 0.03 0.03 0.03 0.03 0.05 0.04 0.04 0.05 0.05 0.06 0.06 0.06 0.06
0.01 0.00 0.01 0.01 0.06 0.08 0.07 0.07 0.05 0.05 0.06 0.07 0.10 0.10 0.10 0.08 0.08 0.12 0.11 0.06 0.07 0.04 0.01 0.02 0.02 0.03 0.03 0.01 0.00 0.00 0.00 0.00 0.00 0.01 0.02 0.03 0.02 0.01 0.01 0.01 0.02 0.02 0.01 0.02 0.03 0.05 0.04 0.04 0.05 0.05 0.04 0.04 0.04 0.04